Showing default

FOX-1, 40967

Orbit data source: Space-Track

FOX-1, 40967 is a payload satellite owned by AMSAT-NA (US) in LEO that was launched on Thu, 08 Oct 2015 UTC via an ATLAS V 401 launch vehicle from the Air Force Western Test Range (AFWTR). Payload-class satellites include a variety of spacecraft equipped with specific instruments for various scientific and technological missions. These include communications satellites like Starlink; space stations such as the ISS; scientific satellites like the Hubble; Earth observation satellites from companies like Planet Labs, Umbra, and HawkEye 360; GPS; miniature CubeSats for education and research; and military/defense satellites.

Loading next visibility...
Identifier
40967, 2015-058D
Orbit
LEO
Last TLE update
12 hours ago
Origin
Manufacturer
AMSAT-NA
Mission
Operational Amateur Technology
Bus & Motor
CUBESAT 1U, Unknown motor
Mass
1 kg wet, 1 kg dry
Launch date (UTC)
2015-10-08 (10 years ago)
Launch vehicle
ATLAS V 401
Launch site
Air Force Western Test Range (AFWTR)
Object type
Payload
Rocket body
Debris
Shape & HBR
Box, 0.1 m
Radar Cross Section
0.015 m², Medium (>0.1 m² and < 1m²)

Expand to show TLE details & history

TLE from 12 hours ago
0 FOX-1
1 40967U 15058D   25191.57982893  .00002026  00000-0  18991-3 0  9995
2 40967  64.7754 258.4918 0156606 185.3822 174.5614 14.88245005 62688
Epoch: 2025-07-10T13:54Z
TLE epoch observation values (Epoch: 2025-07-10T13:54:57.219Z)
Latitude
-0.00007°
Longitude
121.00928°
Altitude
714.294 km
Speed
7.44 km/s
True Right ascension
17h 13m 58s
True Declination
0° 00' 00"
Sunlit
Object was in full shadow at epoch
Visualization orbit readout
Latitude
-5.42653°
Longitude
-58.00256°
Altitude
496.945 km
Speed
7.676 km/s
Apparent Right ascension
04h 03m 57s
Apparent Declination
-23° 26' 01"
Sunlit
Object is in daylight
Visualization observer readout
Local Sidereal Time
14:18:45
Azimuth
298.723° NW
Elevation
-62.382°
Doppler factor
1
Orbital elements
Apogee altitude
711.3 km
Perigee altitude
492.674 km
Semi-major axis
6,980.124 km
Eccentricity
0.01566
Inclination
64.7754°
RAAN
258.4918°
Arg. of periapsis
185.3822°
True anomaly
Unknown
Mean anomaly
174.5614°
Eccentric anomaly
Unknown
Mean motion
3.72176 °/min
Orbital period
96.73 mins
BSTAR
0.00018991
Loading maneuver chart data...
Loading SW <> Apogee altitude chart data...
Loading historical data...
Loading historical data...
Loading historical data...
Loading historical data...
Loading historical data...
Loading historical data...
Loading historical data...

FOX-1 Visibility forecast

Observer location: undefined°, undefined°

Span
Click to sort rows by Start time (UTC) header in descending order
Start Az.
Max El. time (UTC)
Max El. Az.
Max El.
End time (UTC)
End Az.
9 mins2025-07-11 06:10:16.136Z206.107° SW2025-07-11 06:15:16.136Z66.873° ENE43.808°2025-07-11 06:19:16.136Z34.408° NE
4 mins2025-07-11 07:53:16.136Z293.042° NW2025-07-11 07:55:16.136Z321.615° NNW15.345°2025-07-11 07:57:16.136Z349.024° N
5 mins2025-07-11 14:40:16.136Z353.986° N2025-07-11 14:42:16.136Z54.097° ENE35.214°2025-07-11 14:45:16.136Z123.548° SE
|